Location: State Camp
(41.2367°N, 77.7828°W)
Time: 00:54:28
(UTC-04:00)

Hubble Space Telescope - Visible Passes

Search period start: 18 April 2015 00:00
Search period end: 28 April 2015 00:00
Orbit: 543 x 546 km, 28.5° (Epoch: 17 April)

Date Brightness Start Highest point End Pass type
(mag) Time Alt. Az. Time Alt. Az. Time Alt. Az.
18 Apr 2.9 05:15:08 12° SSW 05:16:30 13° S 05:18:33 10° SE visible
19 Apr 2.8 05:07:01 13° S 05:07:52 14° S 05:10:03 10° SE visible
20 Apr 2.8 04:58:57 14° S 04:59:15 14° S 05:01:28 10° SSE visible
21 Apr 2.8 04:50:55 14° S 04:50:55 14° S 04:52:46 10° SSE visible
22 Apr 3.0 04:42:56 12° S 04:42:56 12° S 04:43:59 10° SSE visible
23 Apr 3.2 04:35:04 10° SSE 04:35:04 10° SSE 04:35:05 10° SSE visible
